COSMOS 970 DEB, 64996

Orbit data source: Space-Track

COSMOS 970 DEB, 64996 is space debris in LEO originally from a launch on Wed, 21 Dec 1977 UTC launched from the Tyuratam Missile And Space Complex (TTMTR). Debris objects in space refer to the collection of defunct objects orbiting the Earth. Examples of debris include non-operational satellites, rocket bodies, and fragments generated from explosions, collisions, or faulty payload assembly.

Loading next visibility...
Identifier
64996, 1977-121DH
Orbit
LEO
Country
Flag of CISCIS
Related business
Manufacturer
Unknown
Mission
Spacecraft
Bus & Motor
Unknown
Mass
Unknown
Launch date (UTC)
1977-12-21 (48 years ago)
Launch vehicle
Unknown
Launch site
Tyuratam Missile And Space Complex (TTMTR)
Object type
Payload
Rocket body
Debris
Shape & HBR
Unknown shape, 0.1 m
Radar Cross Section
Medium (>0.1 m² and <1 m²)

Expand to show TLE details & history
Last TLE update: 5 days ago

TLE from 5 days ago
0 COSMOS 970 DEB
1 64996U 77121DH  26167.30539588  .00000393  00000-0  44842-3 0  9995
2 64996  65.8396  99.8794 0112349  80.8208 280.5545 13.78204053631265
Epoch: 2026-06-16T07:19Z
TLE epoch observation values (Epoch: 2026-06-16T07:19:46.204Z)
Latitude
-0.00002°
Longitude
85.35754°
Altitude
958.029 km
Speed
7.38 km/s
True Right ascension
06h 39m 31s
True Declination
0° 00' 00"
Sunlit
Object was in daylight at epoch
Visualization orbit readout
Latitude
Unknown
Longitude
Unknown
Altitude
Unknown
Speed
Unknown
Apparent Right ascension
Unknown
Apparent Declination
Unknown
Sunlit
N/A
Visualization observer readout
Local Sidereal Time
07:14:51
Azimuth
Unknown
Elevation
Unknown
Doppler factor
Unknown
Orbital elements
Apogee altitude
1,051.319 km
Perigee altitude
886.236 km
Semi-major axis
7,346.914 km
Eccentricity
0.01123
Inclination
65.8396°
RAAN
99.8794°
Arg. of periapsis
80.8208°
True anomaly
279.2857°
Mean anomaly
280.5545°
Eccentric anomaly
279.92041°
Mean motion
3.44656 °/min
Orbital period
104.45 mins
BSTAR
0.00044842
Loading maneuver chart data...
Computing Atmospheric mass density...
Loading historical data...
Loading historical data...
Loading historical data...
Loading historical data...
Loading historical data...
Loading historical data...
Loading historical data...

Documentation

Showing up to 5 results
|